Hourly Weather Roundup
Issued by NWS Central Illinois

Home | Current Version | Previous Version | Text Only | Print | Product List | Glossary On
Versions: 1 2 3 4 5 6 7 8 9 10 11 12 13 14 15 16 17 18 19 20 21 22 23 24 25 26 27 28 29 30 31 32 33 34 35 36 37 38 39 40 41 42 43 44 45 46 47 48 49 50
000
NZUS43 KILX 292310
HWRILX

AREA WEATHER ROUNDUP
NATIONAL WEATHER SERVICE, LINCOLN IL
600 PM CDT WED JUL 29 2015


CITY           SKY/WX    TMP DP  RH WIND       PRES   REMARKS
BLOOMINGTON    SUNNY     84  59  42 NW10      30.04F HX  84
CHAMPAIGN      MOSUNNY   83  64  52 NW12      30.01F HX  84
DANVILLE       PTSUNNY   82  70  68 NW10      29.97S HX  85
DECATUR        SUNNY     85  62  46 N16       30.02S HX  85
EFFINGHAM      PTSUNNY   86  70  59 NW13G18   30.01R HX  90
FLORA          CLOUDY    87  74  66 NW9       29.98R HX  96
GALESBURG      SUNNY     81  60  50 W8        30.06F HX  81
JACKSONVILLE   SUNNY     84  64  49 NW6       30.06S HX  85
LACON          SUNNY     82  57  43 W8        30.02F HX  81
LAWRENCEVILLE  CLOUDY    82  78  88 NW6       29.97R HX  91
LITCHFIELD     SUNNY     83  65  53 NW13      30.03S HX  85
$$


CITY           SKY/WX    TMP DP  RH WIND       PRES   REMARKS
LINCOLN        SUNNY     85  53  33 NW7       30.03S HX  83
MACOMB         SUNNY     82  60  47 NW7       30.09S HX  82
MATTOON        PTSUNNY   85  64  49 N17       29.99S HX  86
MT CARMEL AP   CLOUDY    82  75  78 CALM      29.97R HX  89
OLNEY-NOBLE AP CLOUDY    86  77  74 NW10G17   29.98R HX  97
PARIS          CLOUDY    84  71  65 NW12      29.99S HX  90
PEORIA         SUNNY     84  57  39 NW7       30.05S HX  83
PONTIAC        SUNNY     81  65  57 W16       30.02F HX  83
RANTOUL        MOSUNNY   84  66  55 NW13      30.01S HX  86
ROBINSON       CLOUDY    84  76  77 NW3       29.97S HX  93
SPRINGFIELD    SUNNY     86  62  44 N10       30.05R HX  86
TAYLORVILLE    SUNNY     82  68  61 NW12      30.03S HX  85
$$

...REGIONAL REPORTS...


CITY           SKY/WX    TMP DP  RH WIND       PRES   REMARKS
CHICAGO O`HARE MOSUNNY   84  52  33 W15G21    29.96S HX  82
KANKAKEE       SUNNY     82  58  44 NW9G17    30.00S HX  82
MOLINE         SUNNY     83  57  41 W15       30.03F HX  82
MOUNT STERLING NOT AVBL
MOUNT VERNON   MOSUNNY   88  73  62 NW5       29.99S HX  96
PITTSFIELD     SUNNY     83  56  39 N6        30.09S HX  82
QUINCY         SUNNY     82  61  48 NW8       30.08F HX  83
ROCKFORD       MOSUNNY   83  55  38 W14       30.00S HX  82
$$


CITY           SKY/WX    TMP DP  RH WIND       PRES   REMARKS
BURLINGTON     SUNNY     82  59  45 NW8       30.07F HX  82
CEDAR RAPIDS   SUNNY     80  61  52 W13       30.05F HX  81
DES MOINES     MOSUNNY   84  52  33 NW13      30.10S HX  82
KIRKSVILLE     MOSUNNY   81  58  45 NW6       30.12F HX  81
OTTUMWA        SUNNY     80  62  54 W10       30.08F HX  81
ST LOUIS       MOSUNNY   88  65  46 N12       30.04S HX  90
$$


CITY           SKY/WX    TMP DP  RH WIND       PRES   REMARKS
TERRE HAUTE    CLOUDY    85  75  72 NW10      29.97S HX  93
EVANSVILLE     PTSUNNY   86  74  67 N6        29.96R HX  94
INDIANAPOLIS   CLOUDY    85  73  67 NW12      29.95S HX  91
LAFAYETTE      MOSUNNY   82  68  62 NW9       29.96S HX  85
MADISON        MOSUNNY   82  51  34 W13G23    29.94S HX  81
MILWAUKEE      MOSUNNY   84  49  29 W18G26    29.92R HX  82
$$





USA.gov is the U.S. government's official web portal to all federal, state and local government web resources and services.